User: anonymous   Login
Location: Fort Worth, Tx
(32.7431°N, 97.3695°W)
Time: 16:13:20
(UTC-04:00)
Language:

UNISAT 6 - Orbit

View from above orbital plane
View from above orbital plane
View from above satellite
View from above satellite

Ground track
Ground track

The orbit data is extracted from the following two-line orbital elements,

1 40012U 14033C   24104.42110928  .00004850  00000-0  64478-3 0  9995
2 40012  97.6974 269.5401 0054164 155.5683 204.8115 14.79148781528265
Epoch (UTC): 13 April 2024 10:06:23
Eccentricity: 0.0054164
inclination: 97.6974°
perigee height: 594 km
apogee height: 670 km
right ascension of ascending node: 269.5401°
argument of perigee: 155.5683°
revolutions per day: 14.79148781
mean anomaly at epoch: 204.8115°
orbit number at epoch: 52826

The dashed part of the orbit path shows where the satellite is in the earth's shadow,  

DLR